EW9842 Weather Reports


Display with metric or nautical units.
time (UTC)temp
F
wind
direction
speed
MPH
gust
MPH
rain 1hr
in
rain 24hr
in
rain mn
in
humidity
%
barometer
mb
20200331233048 38 337 7.0 0.0 0.01 0.36 0.30 87 1.1
20200331231544 38 57 5.0 0.0 0.01 0.36 0.30 91 1.1
20200331230027 35 75 4.0 0.0 0.01 0.36 0.00 90 1.1
20200331224553 36 170 4.0 0.0 0.01 0.35 0.28 88 1.1
20200331223056 35 191 4.0 0.0 0.01 0.36 0.28 88 1.1
20200331221530 38 279 9.0 0.0 0.01 0.36 0.28 85 1.1
20200331220033 40 199 5.0 0.0 0.02 0.36 0.28 82 1.1
20200331214534 40 157 4.0 0.0 0.01 0.35 0.28 84 1.1
20200331213037 39 129 5.0 0.0 0.01 0.36 0.28 89 1.1
20200331211533 36 102 5.0 0.0 0.01 0.36 0.28 94 1.1
20200331210046 33 98 5.0 0.0 0.01 0.35 0.27 94 1.1
20200331204547 33 77 4.0 0.0 0.01 0.35 0.27 92 1.1
20200331203043 35 319 4.0 0.0 0.01 0.35 0.27 89 1.1
20200331201537 37 290 5.0 0.0 0.02 0.35 0.27 85 1.1
20200331200035 38 228 4.0 0.0 0.01 0.35 0.26 83 1.1
20200331194601 39 131 6.0 0.0 0.01 0.35 0.26 82 1.1
20200331193041 39 129 7.0 0.0 0.02 0.35 0.26 83 1.1
20200331191541 39 102 3.0 0.0 0.02 0.34 0.25 86 1.1
20200331190044 37 218 4.0 0.0 0.02 0.34 0.25 89 1.1
20200331184546 37 206 8.0 0.0 0.03 0.34 0.25 90 1.1
20200331183039 36 122 4.0 0.0 0.03 0.34 0.24 93 1.1
20200331181535 35 15 4.0 0.0 0.03 0.33 0.23 95 1.1
20200331180110 35 15 4.0 0.0 0.04 0.33 0.23 95 1.1
20200331174545 35 42 3.0 0.0 0.04 0.32 0.22 96 1.1
20200331173057 35 355 4.0 0.0 0.04 0.31 0.21 95 1.1
20200331171546 35 5 4.0 0.0 0.03 0.31 0.20 95 1.1
20200331170035 35 350 3.0 0.0 0.03 0.30 0.19 95 1.1
20200331164530 35 20 3.0 0.0 0.03 0.28 0.00 94 1.1
20200331163036 36 318 4.0 0.0 0.02 0.28 0.17 93 1.1
20200331161533 36 187 2.0 0.0 0.03 0.28 0.17 94 1.1
20200331160030 36 77 2.0 0.0 0.02 0.28 0.16 95 1.1
20200331154537 36 83 1.0 0.0 0.02 0.27 0.15 96 1.1
20200331153035 35 138 1.0 0.0 0.03 0.27 0.15 97 1.1
20200331151540 34 130 3.0 0.0 0.02 0.26 0.14 98 1.1
20200331150107 33 132 3.0 0.0 0.03 0.27 0.14 98 1.1
20200331144534 33 112 3.0 0.0 0.02 0.26 0.13 98 1.1
20200331143044 33 138 3.0 0.0 0.02 0.25 0.12 98 1.1
20200331141530 33 142 3.0 0.0 0.02 0.26 0.12 98 1.1
20200331140049 33 146 4.0 0.0 0.01 0.25 0.11 98 1.1
20200331134529 33 111 2.0 0.0 0.02 0.26 0.11 98 1.1
20200331133041 32 172 1.0 0.0 0.01 0.27 0.10 98 1.1
20200331131555 33 105 0.0 0.0 0.02 0.28 0.10 98 1.1
20200331130101 33 93 1.0 0.0 0.02 0.28 0.10 98 1.1
20200331124549 33 72 2.0 0.0 0.01 0.28 0.09 98 1.1
20200331123043 33 50 2.0 0.0 0.02 0.30 0.09 98 1.1
20200331121616 34 11 1.0 0.0 0.01 0.30 0.08 98 1.1
20200331120035 34 175 3.0 0.0 0.02 0.31 0.08 98 1.1
20200331114533 33 188 3.0 0.0 0.02 0.32 0.08 98 1.1
20200331113030 33 159 2.0 0.0 0.01 0.33 0.07 98 1.1
20200331111537 33 140 1.0 0.0 0.02 0.34 0.07 98 1.1
20200331110031 33 257 1.0 0.0 0.01 0.34 0.06 98 1.1
20200331104615 33 249 2.0 0.0 0.02 0.35 0.06 98 1.1
20200331103044 34 62 1.0 0.0 0.02 0.37 0.06 98 1.1
20200331101616 34 313 3.0 0.0 0.01 0.37 0.05 98 1.1
20200331100029 35 356 2.0 0.0 0.02 0.38 0.00 98 1.1
20200331094532 35 63 3.0 0.0 0.01 0.38 0.04 98 1.1
20200331093035 35 146 3.0 0.0 0.01 0.38 0.04 98 1.1
20200331091601 34 102 1.0 0.0 0.02 0.38 0.04 98 1.1
20200331090027 34 198 1.0 0.0 0.01 0.37 0.03 98 1.1
20200331084546 34 225 0.0 0.0 0.02 0.37 0.03 98 1.1
20200331083050 34 146 2.0 0.0 0.02 0.37 0.03 98 1.1
20200331081607 34 119 4.0 0.0 0.01 0.36 0.02 98 1.1
20200331074542 34 242 0.0 0.0 0.01 0.35 0.01 98 1.1
20200331073031 34 289 0.0 0.0 0.01 0.35 0.01 98 1.1
20200331071550 34 283 2.0 0.0 0.02 0.35 0.01 98 1.1
20200331070053 34 314 1.0 0.0 0.01 0.34 0.00 97 1.1
20200331064537 35 327 2.0 0.0 0.01 0.34 0.34 97 1.1
20200331063034 35 349 1.0 0.0 0.02 0.35 0.34 97 1.1
20200331061545 35 294 2.0 0.0 0.01 0.34 0.33 97 1.1
20200331060047 35 308 2.0 0.0 0.01 0.34 0.33 97 1.1
20200331054541 35 291 2.0 0.0 0.02 0.34 0.33 97 1.1
20200331053033 35 145 0.0 0.0 0.01 0.33 0.32 97 1.1
20200331051536 35 132 1.0 0.0 0.01 0.33 0.32 97 1.1
20200331050035 35 331 2.0 0.0 0.01 0.33 0.32 96 1.1
20200331044600 35 301 4.0 0.0 0.01 0.33 0.31 95 1.1
20200331043047 35 183 0.0 0.0 0.01 0.33 0.31 95 1.1
20200331041538 36 164 1.0 0.0 0.01 0.33 0.31 95 1.1
20200331040034 36 225 2.0 0.0 0.01 0.33 0.31 95 1.1
20200331034529 36 103 4.0 0.0 0.00 0.32 0.30 95 1.1
20200331033114 36 35 2.0 0.0 0.00 0.32 0.30 95 1.1
20200331031534 36 347 3.0 0.0 0.01 0.32 0.30 94 1.1
20200331030030 37 24 2.0 0.0 0.01 0.33 0.30 94 1.1
20200331024534 37 66 2.0 0.0 0.01 0.33 0.30 93 1.1
20200331023040 37 81 2.0 0.0 0.01 0.33 0.30 93 1.1
20200331021531 37 122 1.0 0.0 0.00 0.33 0.28 93 1.1
20200331020028 37 117 3.0 0.0 0.00 0.33 0.28 93 1.1
20200331014529 37 115 3.0 0.0 0.00 0.33 0.00 93 1.1
20200331013047 37 82 2.0 0.0 0.00 0.33 0.28 92 1.1
20200331011618 37 75 4.0 0.0 0.01 0.33 0.28 91 1.1
20200331010038 37 87 2.0 0.0 0.01 0.33 0.28 91 1.1
20200331004534 37 81 3.0 0.0 0.01 0.33 0.28 90 1.1
20200331003033 38 59 3.0 0.0 0.01 0.33 0.28 89 1.1
20200331001535 38 69 2.0 0.0 0.00 0.32 0.28 89 1.1
20200331000111 38 143 2.0 0.0 0.00 0.32 0.28 87 1.1
20200330234545 38 209 6.0 0.0 0.00 0.32 0.28 86 1.1